Weather History for Modesto, CA

Change the Weather History Date:

Thursday, June 19, 2014

  Actual Average Record
Temperature  
Mean Temperature 74 °F -  
Max Temperature 94 °F 91 °F 105 °F (1981)
Min Temperature 54 °F 60 °F 46 °F (1933)
Degree Days  
Heating Degree Days 0 0  
Month to date heating degree days 0 0  
Since 1 June heating degree days 0 0  
Since 1 July heating degree days 1969 2168  
Cooling Degree Days 9 11  
Month to date cooling degree days 191 168  
Year to date cooling degree days 443 367  
Since 1 June cooling degree days 191 168  
Growing Degree Days 24 (Base 50)    
Moisture  
Dew Point 34 °F    
Average Humidity 35    
Maximum Humidity 61    
Minimum Humidity 9    
Precipitation  
Precipitation 0.00 in 0.00 in 0.29 in (1974)
Month to date precipitation 0.00 0.10  
Year to date precipitation 5.51 8.73  
Since 1 July precipitation 7.00 13.09  
Snow  
Snow 0.00 in - - ()
Month to date snowfall 0.0  
Since 1 June snowfall 0.0  
Since 1 July snowfall 0.0  
Snow Depth -    
Sea Level Pressure  
Sea Level Pressure 29.91 in    
Wind  
Wind Speed 4 mph (NW)    
Max Wind Speed 15 mph    
Max Gust Speed 18 mph    
Visibility 10 miles    
Events      
T = Trace of Precipitation, MM = Missing Value Source: NWS Daily Summary

Daily Weather History Graph

Daily Weather History Graph

Search for Another Location

Airport:

Trip Planner

Search our weather history database for the weather conditions in past years. The results will help you decide how hot, cold, wet, or windy it might be!

Date:

Astronomy

Jun. 19, 2014 Rise Set
Actual Time 5:42 AM PDT 8:28 PM PDT
Civil Twilight 5:10 AM PDT 8:59 PM PDT
Nautical Twilight 4:31 AM PDT 9:38 PM PDT
Astronomical Twilight 3:47 AM PDT 10:22 PM PDT
Moon 12:42 AM PDT (6/19) 1:10 PM PDT (6/19)
Length of Visible Light 15h 48m
Length of Day
14h 45m
Waning Gibbous, 50% of the Moon is Illuminated
Jun 19
Waning Gibbous
Jun 27
New
Jul 5
First Quarter
Jul 12
Full
Jul 18
Last Quarter

Hourly Weather History & Observations

Time (PDT) Temp. Dew Point Humidity Pressure Visibility Wind Dir Wind Speed Gust Speed Precip Events Conditions
12:53 AM 66.0 °F 36.0 °F 33% 29.89 in 10.0 mi Calm Calm - N/A   Clear
1:53 AM 62.1 °F 37.0 °F 39% 29.89 in 10.0 mi Calm Calm - N/A   Clear
3:53 AM 60.1 °F 41.0 °F 49% 29.89 in 10.0 mi Calm Calm - N/A   Clear
4:53 AM 57.9 °F 42.1 °F 56% 29.90 in 10.0 mi Calm Calm - N/A   Clear
5:53 AM 55.0 °F 43.0 °F 64% 29.91 in 10.0 mi Calm Calm - N/A   Clear
6:53 AM 62.1 °F 44.1 °F 52% 29.92 in 10.0 mi Calm Calm - N/A   Clear
7:53 AM 69.1 °F 37.0 °F 31% 29.93 in 10.0 mi North 5.8 mph - N/A   Clear
8:53 AM 75.0 °F 35.1 °F 23% 29.93 in 10.0 mi Calm Calm - N/A   Clear
9:53 AM 79.0 °F 35.1 °F 20% 29.94 in 10.0 mi NW 6.9 mph - N/A   Clear
10:53 AM 82.9 °F 28.9 °F 14% 29.94 in 10.0 mi NW 6.9 mph - N/A   Clear
11:53 AM 84.9 °F 28.9 °F 13% 29.94 in 10.0 mi Variable 3.5 mph - N/A   Clear
12:53 PM 88.0 °F 30.9 °F 13% 29.93 in 10.0 mi Variable 3.5 mph - N/A   Clear
1:53 PM 90.0 °F 28.0 °F 11% 29.91 in 10.0 mi Variable 5.8 mph - N/A   Clear
2:53 PM 91.9 °F 28.0 °F 10% 29.90 in 10.0 mi North - - N/A   Clear
3:53 PM 93.0 °F 27.0 °F 9% 29.89 in 10.0 mi WNW 10.4 mph - N/A   Clear
4:53 PM 93.0 °F 30.0 °F 11% 29.88 in 10.0 mi WNW 11.5 mph - N/A   Clear
5:53 PM 93.0 °F 32.0 °F 12% 29.88 in 10.0 mi NW 12.7 mph - N/A   Clear
6:53 PM 89.1 °F 30.9 °F 12% 29.88 in 10.0 mi WNW 16.1 mph 24.2 mph N/A   Clear
7:53 PM 86.0 °F 30.9 °F 14% 29.89 in 10.0 mi NW 13.8 mph - N/A   Clear
8:53 PM 81.0 °F 33.1 °F 18% 29.88 in 10.0 mi NNW 12.7 mph - N/A   Clear
9:53 PM 77.0 °F 33.1 °F 20% 29.91 in 10.0 mi NNW 8.1 mph - N/A   Clear
10:53 PM 73.9 °F 35.1 °F 24% 29.91 in 10.0 mi NNW 9.2 mph - N/A   Clear
11:53 PM 72.0 °F 35.1 °F 26% 29.91 in 10.0 mi NNE 5.8 mph - N/A   Clear